Location: Vancouver
(49.2500°N, 123.1330°W)
Time: 22:07:49
(UTC-07:00)

Iridium 35 - Visible Passes

Search period start: 23 May 2015 00:00
Search period end: 02 June 2015 00:00
Orbit: 776 x 779 km, 86.4° (Epoch: 23 May)

Date Brightness Start Highest point End Pass type
(mag) Time Alt. Az. Time Alt. Az. Time Alt. Az.
23 May 6.4 02:48:51 10° SSE 02:53:29 34° E 02:58:12 10° NNE visible
23 May 5.8 04:29:26 10° SW 04:34:14 36° WNW 04:39:01 10° N visible
24 May 7.1 02:16:28 10° SE 02:20:11 21° E 02:24:04 10° NNE visible
24 May 5.2 03:55:46 12° SSW 04:00:31 60° W 04:05:42 10° N visible
25 May 7.5 01:45:07 10° E 01:47:00 12° ENE 01:49:09 10° NE visible
25 May 5.1 03:22:29 14° S 03:26:57 81° E 03:32:12 10° N visible
26 May 5.8 02:49:11 13° SSE 02:53:30 47° E 02:58:30 10° NNE visible
26 May 6.2 04:30:06 10° SW 04:34:31 26° WNW 04:38:52 10° NNW visible
27 May 6.6 02:15:53 10° SE 02:20:08 28° E 02:24:35 10° NNE visible
27 May 5.6 03:56:22 13° SSW 04:00:43 44° W 04:05:42 10° N visible
28 May 7.3 01:43:43 10° ESE 01:46:53 17° ENE 01:50:15 10° NE visible
28 May 5.0 03:23:02 17° S 03:27:04 75° W 03:32:19 10° N visible
29 May 5.3 02:49:43 18° SSE 02:53:32 65° E 02:58:44 10° N visible
29 May 6.6 04:31:02 10° WSW 04:34:51 20° WNW 04:38:34 10° NNW visible
30 May 6.1 02:16:23 15° SE 02:20:07 38° E 02:24:57 10° NNE visible
30 May 6.0 03:56:51 13° SW 04:00:57 32° WNW 04:05:37 10° NNW visible
31 May 6.9 01:43:02 11° SE 01:46:48 23° E 01:50:54 10° NNE visible
31 May 5.3 03:23:30 18° SSW 03:27:13 54° W 03:32:21 10° N visible
01 Jun 7.4 01:11:11 10° ESE 01:13:36 14° ENE 01:16:15 10° NE visible
01 Jun 5.0 02:50:09 22° S 02:53:37 89° E 02:58:53 10° N visible
01 Jun 7.0 04:32:18 10° W 04:35:15 15° WNW 04:38:00 10° NNW visible
